Location: Diebersbach
(48.5163°N, 8.0558°E)
Time: 23:34:13
(UTC+00:00)

FENGYUN 1C DEB - Pass Details

Date: 30 January 2022
Orbit: 690 x 984 km, 98.6° (Epoch: 23 May)

Event Time Altitude Azimuth Distance (km) Brightness Sun altitude
Rises 05:39:28 0° 22° (NNE) 3,585 ? -13.4°
Reaches altitude 10° 05:42:19 10° 33° (NNE) 2,594 ? -12.9°
Maximum altitude 05:47:17 29° 92° (E) 1,527 ? -12.1°
Drops below altitude 10° 05:51:55 10° 152° (SSE) 2,409 ? -11.4°
Sets 05:54:28 0° 164° (SSE) 3,287 ? -11.0°
